[[{"header":{"parameterUnit":"m.s-1","parameterCategory":1,"la1":30.2991,"la2":30.254,"lo1":-89.0895,"lo2":-89.0444,"dy":0.0017,"dx":0.0017,"nx":28,"ny":28,"refTime":"2025-07-19T09:00:00:Z","depth":0,"parameterNumber":2,"parameterNumberName":"U-component_of_WINDS"},"data":[0,0,0,0,0,0,0,0,0,0,0,0,0,0,0,0,0,0,0,0,0,0,0,0,0,0,0,0,0,0,0,0,0,0,0,0,0,0,0,0,0,0,0,0,0,0,0,0,0,0,0,0,0,0,0,0,0,0,2.8087,2.8088,0,2.8199,2.82,2.8201,2.8183,2.8181,2.8179,2.8177,2.8293,2.8298,2.8302,0,0,0,0,0,0,0,0,0,0,0,0,0,2.7856,2.786,2.8087,2.8088,2.8089,2.8199,2.82,2.8202,2.8183,2.8181,2.8178,2.8176,2.8291,2.8297,2.8303,0,0,0,0,0,0,0,0,0,0,0,0,0,2.7961,2.7861,2.8086,2.8093,2.8095,2.8198,2.82,2.8202,2.8184,2.8181,2.8178,2.8175,2.8289,2.8296,2.8304,2.8407,0,0,2.8326,2.8329,0,0,0,0,0,0,0,0,2.7955,2.7969,2.8091,2.8093,2.8095,2.8174,2.8161,2.8271,2.8184,2.815,2.8177,2.8174,2.8256,2.8266,2.8293,2.8413,2.8418,2.8327,2.8331,2.8334,2.8336,0,0,0,0,0,0,0,2.7948,2.7964,2.8131,2.8093,2.8095,2.809,2.8102,2.8182,2.8218,2.8153,2.8152,2.8165,2.8256,2.8286,2.8296,2.8419,2.8327,2.8333,2.8338,2.8341,2.8627,2.863,0,0,0,0,0,0,2.7938,2.7958,2.8127,2.8134,2.8016,2.8097,2.811,2.8151,2.8217,2.8224,2.8167,2.8164,2.8275,2.8287,2.83,2.8423,2.8334,2.8341,2.8345,2.8624,2.8628,2.8631,0,0,0,0,0,0,2.7933,2.7953,2.8123,2.8046,2.8067,2.8104,2.8151,2.8155,2.8185,2.8228,2.8234,2.8191,2.8273,2.8289,2.838,2.8427,2.8345,2.8351,2.862,2.8625,2.8629,2.8672,0,0,0,0,0,0,2.7927,2.7952,2.7992,2.8047,2.8071,2.8202,2.8154,2.816,2.8197,2.8194,2.8252,2.8259,2.8272,2.8369,2.8387,2.8435,2.8357,2.8616,2.8622,2.8628,2.8667,2.8678,2.8687,0,0,0,0,0,2.7919,2.8,2.7994,2.8015,2.8122,2.8205,2.8218,2.8231,2.8201,2.8242,2.8269,2.8257,2.8419,2.8379,2.8399,2.845,2.8613,2.862,2.8627,2.8662,2.8676,2.8687,0,0,0,0,0,0,2.7951,2.8008,2.8002,2.8104,2.8149,2.8201,2.8252,2.8246,2.8301,2.8296,2.831,2.8323,2.8414,2.8442,2.8395,2.8552,2.8512,2.8523,2.8531,2.8544,2.8554,2.8545,2.8363,0,0,0,0,0,2.797,2.8032,2.8078,2.8164,2.8187,2.8216,2.8252,2.8258,2.8306,2.8325,2.8359,2.8406,2.8467,2.8508,2.8567,2.8671,2.8682,2.8716,2.8726,2.8734,2.8744,2.8798,2.8813,2.8655,2.8655,2.8654,0,0,2.801,2.8048,2.8087,2.8171,2.8207,2.827,2.8232,2.8301,2.8348,2.8336,2.8423,2.8449,2.8503,2.86,2.8644,2.8625,2.879,2.8743,2.875,2.8755,2.8807,2.8822,2.8835,2.866,2.8659,2.8658,0,0,2.8114,2.8151,2.8224,2.8261,2.8315,2.8334,2.8351,2.8404,2.8421,2.8508,2.8499,2.8555,2.8661,2.8698,2.8731,2.8847,2.8838,2.8866,2.892,2.8973,2.8985,2.8996,2.9035,2.905,2.8876,2.8876,2.8876,0,2.8157,2.8252,2.8264,2.8333,2.8369,2.836,2.8434,2.8469,2.854,2.8565,2.8543,2.8674,2.8709,2.8813,2.8841,2.8869,2.8889,2.8859,2.8982,2.8994,2.9004,2.9042,2.9057,2.8879,2.8879,2.8878,2.8878,0,2.83,2.8366,2.8419,2.8486,2.8529,2.8601,2.8622,2.8664,2.8666,2.8686,2.8774,2.8816,2.8882,2.8907,2.8911,2.9012,2.8998,2.8979,2.8938,2.9022,2.9057,2.9072,2.8883,2.8882,2.8881,2.8881,0,0,2.8429,2.85,2.8519,2.8548,2.8607,2.8658,2.8728,2.8792,2.8826,2.8875,2.8933,2.9022,2.9004,2.9041,2.9049,2.9095,2.9181,2.907,2.9072,2.9088,2.9293,2.9305,2.9322,2.9176,2.9179,2.9181,2.9287,0,2.8537,2.866,2.8672,2.8783,2.8842,2.8834,2.8894,2.8936,2.8957,2.901,2.9033,2.9095,2.9067,2.9089,2.9135,2.9161,2.9222,2.9154,2.9229,2.9231,2.9214,2.9341,2.9355,2.9453,2.9302,2.9304,2.9306,0,2.868,2.8731,2.8847,2.8895,2.892,2.8975,2.9033,2.9084,2.9131,2.9143,2.9183,2.9183,2.9255,2.9212,2.9309,2.9262,2.9294,2.9311,2.9315,2.9321,2.9273,2.9349,2.9485,2.9499,2.9328,2.9326,2.9325,0,2.8759,2.8858,2.8939,2.8965,2.9023,2.9061,2.9087,2.9131,2.9168,2.9219,2.9242,2.9301,2.9333,2.9378,2.9394,2.9361,2.949,2.9449,2.95,2.95,2.9527,2.9525,2.9669,2.955,2.955,2.9549,2.9549,0,2.8878,2.8948,2.8975,2.9025,2.9103,2.9116,2.9193,2.9217,2.9256,2.931,2.9307,2.9357,2.9376,2.9429,2.9442,2.9519,2.9535,2.9545,2.9547,2.9544,2.9543,2.9564,2.9557,2.9553,2.9553,2.9552,2.9551,0,2.8979,2.9,2.9087,2.9135,2.9148,2.9204,2.9244,2.9292,2.9311,2.9379,2.9395,2.9425,2.9488,2.9508,2.9585,2.9593,2.9682,2.968,2.9666,2.9666,2.9715,2.971,2.9877,2.9899,2.9767,2.9769,2.977,0,2.9053,2.9106,2.9159,2.9194,2.9221,2.9279,2.9315,2.933,2.9368,2.9424,2.9464,2.9526,2.9576,2.9676,2.9705,2.9762,2.976,2.9814,2.9768,2.9763,2.9758,2.9754,2.9758,2.9822,2.9824,2.9825,2.9826,0,2.918,2.9187,2.924,2.9296,2.934,2.9385,2.9428,2.9457,2.9478,2.9521,2.9584,2.9622,2.9699,2.9759,2.9818,2.9844,2.9838,2.984,2.9854,2.9851,2.984,2.9845,2.9688,2.9836,2.9835,2.9834,2.9834,2.9833,2.9269,2.9315,2.9358,2.9417,2.945,2.949,2.9537,2.9561,2.9613,2.9676,2.9681,2.9749,2.9792,2.987,2.9899,2.9952,2.9936,2.9958,2.9963,2.9968,2.997,2.9833,2.9963,2.9962,2.9962,2.9962,2.9962,0,2.9394,2.9421,2.9474,2.9534,2.958,2.9569,2.9616,2.9655,2.9714,2.9755,2.9804,2.9875,2.9933,2.9966,3.0024,3.006,3.0058,3.0074,3.0071,3.0077,2.9982,2.9963,3.0074,3.0074,3.0074,3.0074,3.0074,3.0074,2.9464,2.9541,2.9553,2.9646,2.9673,2.9738,2.9766,2.9802,2.9835,2.9914,2.9962,2.9982,3.002,3.008,3.0132,3.014,3.0161,3.0178,3.0185,3.0095,3.0084,3.0073,3.0054,3.0183,3.0183,3.0274,3.0275,3.0276]},{"header":{"parameterUnit":"m.s-1","parameterCategory":1,"la1":30.2991,"la2":30.254,"lo1":-89.0895,"lo2":-89.0444,"dy":0.0017,"dx":0.0017,"nx":28,"ny":28,"refTime":"2025-07-19T09:00:00:Z","depth":0,"parameterNumber":3,"parameterNumberName":"V-component_of_WINDS"},"data":[0,0,0,0,0,0,0,0,0,0,0,0,0,0,0,0,0,0,0,0,0,0,0,0,0,0,0,0,0,0,0,0,0,0,0,0,0,0,0,0,0,0,0,0,0,0,0,0,0,0,0,0,0,0,0,0,0,0,4.7143,4.7144,0,4.7218,4.7219,4.722,4.7166,4.7164,4.7161,4.7159,4.7229,4.7233,4.7237,0,0,0,0,0,0,0,0,0,0,0,0,0,4.6946,4.695,4.7143,4.7144,4.7145,4.7218,4.7219,4.722,4.7167,4.7164,4.7161,4.7158,4.7228,4.7233,4.7238,0,0,0,0,0,0,0,0,0,0,0,0,0,4.7028,4.6952,4.7143,4.7127,4.7127,4.7218,4.7219,4.722,4.7167,4.7164,4.716,4.7157,4.7226,4.7232,4.7238,4.7347,0,0,4.7257,4.726,0,0,0,0,0,0,0,0,4.7023,4.7035,4.7129,4.7129,4.7128,4.7179,4.7175,4.7262,4.7168,4.7152,4.7159,4.7155,4.7215,4.7222,4.7243,4.735,4.7353,4.7257,4.7261,4.7264,4.7265,0,0,0,0,0,0,0,4.7017,4.7031,4.7173,4.713,4.713,4.7114,4.7122,4.7192,4.7202,4.7153,4.7149,4.7159,4.7214,4.7238,4.7245,4.7354,4.7257,4.7263,4.7266,4.7269,4.7551,4.7555,0,0,0,0,0,0,4.7014,4.7027,4.717,4.7175,4.7066,4.7121,4.7129,4.7166,4.7201,4.7203,4.7162,4.7156,4.7229,4.7238,4.7247,4.7375,4.7264,4.7269,4.7273,4.7548,4.7552,4.7556,0,0,0,0,0,0,4.701,4.7028,4.7167,4.71,4.7117,4.7128,4.717,4.717,4.7193,4.7208,4.7209,4.7185,4.7227,4.7238,4.7322,4.7377,4.7272,4.7278,4.7543,4.7549,4.7554,4.7633,0,0,0,0,0,0,4.7005,4.7026,4.707,4.7101,4.712,4.7244,4.7173,4.7174,4.7205,4.7198,4.723,4.7232,4.7225,4.7314,4.7329,4.7383,4.7282,4.7538,4.7546,4.7552,4.7626,4.7641,4.7654,0,0,0,0,0,4.6998,4.7088,4.7072,4.709,4.7175,4.7247,4.7258,4.725,4.7209,4.7252,4.7261,4.7231,4.7369,4.7323,4.7339,4.7397,4.7535,4.7544,4.7552,4.762,4.7638,4.7654,0,0,0,0,0,0,4.706,4.7092,4.7075,4.7178,4.7211,4.7238,4.7291,4.727,4.7313,4.7305,4.7291,4.7299,4.7387,4.74,4.7348,4.7502,4.7445,4.7457,4.7491,4.7508,4.7522,4.7517,4.7288,0,0,0,0,0,4.7086,4.7144,4.7168,4.7256,4.7274,4.728,4.7311,4.7302,4.7335,4.7347,4.7363,4.7394,4.7443,4.7477,4.7524,4.7628,4.7633,4.7675,4.7689,4.7701,4.7711,4.7765,4.7784,4.7585,4.7585,4.7585,0,0,4.7139,4.7164,4.7201,4.727,4.7294,4.7352,4.7292,4.7356,4.7398,4.7356,4.7437,4.745,4.7482,4.7577,4.7619,4.759,4.7767,4.7712,4.7721,4.7725,4.7776,4.7795,4.7812,4.7591,4.759,4.7589,0,0,4.7267,4.7292,4.7368,4.7394,4.7432,4.7436,4.7454,4.7485,4.7492,4.7574,4.7543,4.7592,4.7679,4.7703,4.7727,4.7863,4.7836,4.7879,4.7952,4.8005,4.8021,4.8034,4.8082,4.8099,4.7889,4.7889,4.789,0,4.7328,4.7417,4.7409,4.7477,4.7506,4.7473,4.7549,4.7573,4.7624,4.7644,4.7612,4.772,4.774,4.7839,4.7872,4.7893,4.7912,4.7875,4.802,4.8033,4.8046,4.8091,4.8109,4.7894,4.7894,4.7893,4.7893,0,4.7489,4.7551,4.7608,4.766,4.7696,4.7767,4.7768,4.7805,4.7793,4.7799,4.7881,4.7904,4.7954,4.7977,4.7965,4.8074,4.8055,4.8022,4.7963,4.807,4.8112,4.8129,4.7901,4.7899,4.7898,4.7897,0,0,4.7657,4.7705,4.7725,4.7748,4.7788,4.7834,4.7902,4.7954,4.7985,4.8021,4.8077,4.8151,4.812,4.8147,4.8138,4.8185,4.8289,4.8145,4.8145,4.817,4.8408,4.8433,4.8453,4.8272,4.8275,4.8278,4.8405,0,4.7785,4.7907,4.7902,4.8015,4.8071,4.804,4.8099,4.8128,4.8136,4.8182,4.8189,4.8242,4.8198,4.8214,4.8259,4.8267,4.8337,4.8258,4.8321,4.8323,4.8313,4.8475,4.8501,4.862,4.8421,4.8424,4.8426,0,4.7952,4.7995,4.8115,4.8145,4.8168,4.8222,4.8268,4.8314,4.8346,4.8347,4.8378,4.8361,4.8427,4.8368,4.8458,4.8405,4.843,4.8438,4.8442,4.8447,4.8381,4.8482,4.8658,4.8675,4.8452,4.845,4.8448,0,4.8061,4.8149,4.8231,4.8252,4.829,4.8328,4.8345,4.8374,4.8405,4.8444,4.8464,4.851,4.8535,4.857,4.8565,4.8522,4.8656,4.8597,4.8657,4.8657,4.8686,4.8684,4.8867,4.8704,4.8704,4.8704,4.8703,0,4.8204,4.8277,4.8281,4.8332,4.8412,4.8405,4.8484,4.8497,4.8522,4.8573,4.8548,4.8595,4.8586,4.8633,4.8629,4.8703,4.8714,4.8716,4.8714,4.8718,4.8718,4.8733,4.8725,4.8708,4.8707,4.8706,4.8706,0,4.8339,4.8345,4.8432,4.8462,4.8471,4.8529,4.8552,4.8599,4.8604,4.8668,4.8683,4.869,4.8744,4.8743,4.8803,4.88,4.8891,4.888,4.8881,4.8878,4.8938,4.8932,4.9137,4.9163,4.8985,4.8986,4.8988,0,4.8429,4.8486,4.8522,4.8555,4.8575,4.8629,4.8661,4.8655,4.8689,4.8729,4.877,4.8822,4.8863,4.895,4.8959,4.9004,4.8993,4.9062,4.9,4.9002,4.8993,4.8989,4.8994,4.9073,4.9075,4.9077,4.9078,0,4.8589,4.8589,4.8638,4.8687,4.8727,4.8765,4.88,4.8828,4.8825,4.8864,4.892,4.8952,4.9014,4.9065,4.9109,4.9123,4.91,4.9098,4.9114,4.9118,4.9116,4.9117,4.8913,4.9093,4.9092,4.9091,4.909,4.9089,4.8704,4.8752,4.8785,4.8839,4.8866,4.8899,4.8944,4.8956,4.9003,4.9055,4.9048,4.9109,4.9138,4.9194,4.9213,4.926,4.9235,4.9259,4.9265,4.927,4.9277,4.911,4.9268,4.9267,4.9267,4.9266,4.9266,0,4.8861,4.8881,4.8931,4.8982,4.9024,4.9002,4.9039,4.9075,4.913,4.916,4.9202,4.9265,4.9314,4.9327,4.9374,4.9408,4.9399,4.9421,4.9417,4.9421,4.9296,4.9277,4.9428,4.9428,4.9428,4.9428,4.9428,4.9428,4.8948,4.9028,4.9032,4.9124,4.9142,4.9205,4.9228,4.9257,4.9281,4.9354,4.9395,4.9404,4.9427,4.9475,4.9518,4.9521,4.9538,4.9565,4.9563,4.9446,4.943,4.9414,4.9396,4.9569,4.9569,4.9683,4.9684,4.9685]}]]